Flag for Niger Weather past 2 weeks in Niamey, Niger

Now
79 °F

Clear.


Feels Like: 82 °F
Forecast: 84 / 99 °F
Wind: 3 mph from Southwest

Location: Niamey-Aero

Current Time: Jul 6, 2015 at 2:56:53 AM

Latest Report: Jul 6, 2015 at 2:00 AM


Visibility: 10 mi

Pressure: 29.86 "Hg

Humidity: 84%

Dew point: 73 °F

Location of NiameyLocation

Historic Weather in Niamey — Graph

°F

Niamey temperature yesterday

Maximum temperature yesterday: 91 °F (at 1:00 PM)
Minimum temperature yesterday: 77 °F (at 1:00 AM)
Average temperature yesterday: 82 °F

Past Weeks' High & Low Weather Summary

 TemperatureHumidityPressure
High108 °F (Jun 21, 5:00 PM)100% (Jun 24, 4:00 AM)30.07 "Hg (Jun 24, 4:00 AM)
Low70 °F (Jun 24, 4:00 AM)14% (Jun 21, 6:00 PM)29.80 "Hg (Jun 21, 6:00 PM)
Average91 °F46%29.90 "Hg
* Reported Jun 21 1:00 AM — Jul 6 1:00 AM, Niamey, Weather by CustomWeather, © 2015

Note: Actual official high and low records may vary slightly from our data, if they occured in-between our weather recording intervals... More about our weather records

Advertising

Niamey weather history for previous 24 hours

 ConditionsComfort  
Time TempWeatherWind HumidityBarometerVisibility
1:00 AM
Mon, Jul 6
79 °FClear.3 mph84%29.89 "Hg10 mi
12:00 AM79 °FClear.5 mph79%29.89 "Hg10 mi
11:00 PM
Sun, Jul 5
81 °FClear.6 mph74%29.89 "Hg10 mi
10:00 PM81 °FClear.5 mph79%29.89 "Hg5 mi
9:00 PM81 °FClear.3 mph79%29.89 "Hg5 mi
8:00 PM82 °FClear.5 mph70%29.83 "Hg4 mi
7:00 PM82 °FClear.8 mph70%29.83 "Hg4 mi
6:00 PM84 °FClear.6 mph66%29.80 "Hg4 mi
5:00 PM86 °FClear.9 mph62%29.83 "Hg4 mi
4:00 PM86 °FPassing clouds.9 mph55%29.86 "Hg2 mi
3:00 PM84 °FPassing clouds.8 mph62%29.92 "Hg1 mi
2:00 PM84 °FThunderstorms. Passing clouds.13 mph66%29.92 "Hg3 mi
1:00 PM91 °FPartly sunny.9 mph52%29.95 "Hg4 mi
12:00 PM88 °FPassing clouds.6 mph62%29.95 "HgN/A
11:00 AM86 °FPassing clouds.7 mph66%29.95 "HgN/A
10:00 AM84 °FPassing clouds.5 mph66%29.95 "HgN/A
9:00 AM81 °FSunny.3 mph74%29.92 "Hg10 mi
8:00 AM79 °FSunny.1 mph74%29.92 "Hg10 mi
7:00 AM79 °FPassing clouds.5 mph79%29.89 "HgN/A
6:00 AM79 °FPassing clouds.1 mph79%29.89 "HgN/A
5:00 AM79 °FPassing clouds.2 mph70%29.86 "HgN/A
4:00 AM79 °FPassing clouds.3 mph79%29.86 "HgN/A
3:00 AM79 °FPassing clouds.7 mph79%29.86 "Hg5 mi
2:00 AM77 °FThunderstorms. Passing clouds.6 mph79%29.89 "Hg5 mi
Weather by CustomWeather, © 2015

See weather overviewHow to use our weather pages